Showing default

METEOR M2, 40069

Orbit data source: Space-Track

METEOR M2, 40069 is a Commonwealth of Independent States-origin payload satellite in SSO that was launched on Tue, 08 Jul 2014 UTC via a SOYUZ-2-1B launch vehicle from the Tyuratam Missile And Space Complex (TTMTR). Payload-class satellites include a variety of spacecraft equipped with specific instruments for various scientific and technological missions. These include communications satellites like Starlink; space stations such as the ISS; scientific satellites like the Hubble; Earth observation satellites from companies like Planet Labs, Umbra, and HawkEye 360; GPS; miniature CubeSats for education and research; and military/defense satellites.

Loading next visibility...
Identifier
40069, 2014-037A
Orbit
SSO
Last TLE update
6 hours ago
Origin
Manufacturer
VNIIEM
Mission
Partially operational Civil Weather
Bus & Motor
RESURS-O, Unknown motor
Mass
2,879 kg wet, ~2,600 kg dry
Launch date (UTC)
2014-07-08 (11 years ago)
Launch vehicle
SOYUZ-2-1B
Launch site
Tyuratam Missile And Space Complex (TTMTR)
Object type
Payload
Rocket body
Debris
Shape & HBR
Cyl + 2 Pan, 14 m
Radar Cross Section
26.744 m², Large (>1 m²)

Expand to show TLE details & history

TLE from 6 hours ago
0 METEOR M2
1 40069U 14037A   25186.52685337  .00000091  00000-0  60974-4 0  9995
2 40069  98.4687 170.4202 0005168 335.9231  24.1705 14.21306151570077
Epoch: 2025-07-05T12:38Z
TLE epoch observation values (Epoch: 2025-07-05T12:38:40.131Z)
Latitude
0.00003°
Longitude
56.98936°
Altitude
820.468 km
Speed
7.445 km/s
True Right ascension
11h 21m 40s
True Declination
0° 00' 00"
Sunlit
Object was in daylight at epoch
Visualization orbit readout
Latitude
7.46466°
Longitude
-121.66386°
Altitude
826.759 km
Speed
7.438 km/s
Apparent Right ascension
21h 29m 33s
Apparent Declination
-18° 01' 44"
Sunlit
Object is in daylight
Visualization observer readout
Local Sidereal Time
06:26:51
Azimuth
285.522° WNW
Elevation
-45.087°
Doppler factor
1
Orbital elements
Apogee altitude
821.803 km
Perigee altitude
814.365 km
Semi-major axis
7,196.221 km
Eccentricity
0.00052
Inclination
98.4687°
RAAN
170.4202°
Arg. of periapsis
335.9231°
True anomaly
Unknown
Mean anomaly
24.1705°
Eccentric anomaly
Unknown
Mean motion
3.55538 °/min
Orbital period
101.25 mins
BSTAR
0.000060974
Loading maneuver chart data...
Loading SW <> Apogee altitude chart data...
Loading historical data...
Loading historical data...
Loading historical data...
Loading historical data...
Loading historical data...
Loading historical data...
Loading historical data...

METEOR M2 Visibility forecast

Observer location: undefined°, undefined°

Span
Click to sort rows by Start time (UTC) header in descending order
Start Az.
Max El. time (UTC)
Max El. Az.
Max El.
End time (UTC)
End Az.
9 mins2025-07-05 22:54:18.425Z165.147° S2025-07-05 22:58:18.425Z359.981° N44.988°2025-07-05 23:03:18.425Z346.943° N
8 mins2025-07-06 11:12:18.425Z35.077° NE2025-07-06 11:16:18.425Z101.12° ESE32.242°2025-07-06 11:20:18.425Z162.095° S
7 mins2025-07-06 12:53:18.425Z336.081° NNW2025-07-06 12:56:18.425Z289.982° WNW23.845°2025-07-06 13:00:18.425Z240.002° WSW
|